Date String (YYYY-MM-DD hh:mm:ss) UTC,Instrument flags,absolute air pressure of the measurement (hPa),sample flow rate (lpm),inlet stack bypass flow (lpm),air temperature of the measurement (°C),ambient temperature measured by the external sensor (°C),aerosol sample conditioner tube jacket temperature (°C),OPC LED temperature (°C),internal box temperature (°C),relative humidity of the measurement (%),span deviation,mass concentration of particles derived from Lorenz-Mie calculation of OPC scattering (μg/m³),mass concentration of particles derived from Lorenz-Mie calculation of OPC scattering (μg/m³),mass concentration of particles derived from Lorenz-Mie calculation of OPC scattering (μg/m³)
DateTimeUTC,F1_M11,P_M11,Q1_M11,Q2_M11,T1_M11,T2_M11,T3_M11,T4_M11,T5_M11,U1_M11,ZSPAN_M11,X2_M11,X0_M11,X1_M11
2024-02-24 13:00:00,SystemResetWarning,0828.2,4.98,000.00,018.3,017.5,000.0,026.9,020.0,08.5,0000.0,0002.70,0008.52,0001.13
2024-02-24 13:01:00,SystemResetWarning,0828.2,5.01,000.00,018.3,017.5,000.0,026.9,020.0,09.0,0000.0,0002.71,0008.24,0001.11
2024-02-24 13:02:00,SystemResetWarning,0828.1,5.00,000.00,018.3,017.5,000.0,026.8,020.0,09.6,0000.0,0002.67,0008.08,0001.08
2024-02-24 13:03:00,SystemResetWarning,0828.2,5.00,000.00,018.3,017.5,000.0,026.8,020.0,09.7,0000.0,0002.64,0007.70,0001.08
2024-02-24 13:04:00,SystemResetWarning,0828.1,4.99,000.00,018.3,017.5,000.0,026.8,020.0,09.6,0000.0,0002.59,0007.81,0001.07
2024-02-24 13:05:00,SystemResetWarning,0828.1,4.99,000.00,018.3,017.4,000.0,026.8,020.0,09.4,0000.0,0002.59,0007.52,0001.06
2024-02-24 13:06:00,SystemResetWarning,0828.1,5.00,000.00,018.3,017.4,000.0,026.9,020.0,09.0,0000.0,0002.57,0007.66,0001.05
2024-02-24 13:07:00,SystemResetWarning,0828.1,5.02,000.00,018.3,017.4,000.0,026.8,020.0,09.1,0000.0,0002.53,0007.58,0001.06
2024-02-24 13:08:00,SystemResetWarning,0828.1,5.00,000.00,018.3,017.4,000.0,026.9,020.0,09.4,0000.0,0002.51,0007.55,0001.07
2024-02-24 13:09:00,SystemResetWarning,0828.1,4.99,000.00,018.3,017.4,000.0,026.9,020.0,09.4,0000.0,0002.48,0007.47,0001.07
2024-02-24 13:10:00,SystemResetWarning,0828.1,4.99,000.00,018.3,017.4,000.0,026.9,020.0,09.4,0000.0,0002.45,0007.33,0001.05
2024-02-24 13:11:00,SystemResetWarning,0828.1,5.02,000.00,018.3,017.3,000.0,026.9,020.0,09.1,0000.0,0002.45,0007.36,0001.05
2024-02-24 13:12:00,SystemResetWarning,0828.1,5.00,000.00,018.3,017.3,000.0,026.9,020.0,09.4,0000.0,0002.33,0007.07,0001.05
2024-02-24 13:13:00,SystemResetWarning,0828.1,5.00,000.00,018.3,017.3,000.0,026.9,020.0,09.4,0000.0,0002.28,0006.58,0001.07
2024-02-24 13:14:00,SystemResetWarning,0828.1,5.00,000.00,018.3,017.3,000.0,026.9,020.0,09.5,0000.0,0002.23,0005.54,0001.08
2024-02-24 13:15:00,SystemResetWarning,0828.1,5.00,000.00,018.3,017.3,000.0,026.9,020.0,09.4,0000.0,0002.23,0005.22,0001.09
2024-02-24 13:16:00,SystemResetWarning,0828.1,5.01,000.00,018.3,017.3,000.0,026.9,020.0,09.0,0000.0,0002.21,0005.24,0001.10
2024-02-24 13:17:00,SystemResetWarning,0828.2,5.01,000.00,018.3,017.4,000.0,026.9,020.0,09.3,0000.0,0002.22,0004.98,0001.11
2024-02-24 13:18:00,SystemResetWarning,0828.2,4.99,000.00,018.3,017.4,000.0,026.9,020.0,09.3,0000.0,0002.20,0004.90,0001.11
2024-02-24 13:19:00,SystemResetWarning,0828.2,5.00,000.00,018.3,017.4,000.0,026.9,020.0,09.3,0000.0,0002.19,0004.88,0001.11
2024-02-24 13:20:00,SystemResetWarning,0828.2,5.01,000.00,018.3,017.4,000.0,026.9,020.0,09.2,0000.0,0002.16,0005.64,0001.12
2024-02-24 13:21:00,SystemResetWarning,0828.2,5.01,000.00,018.3,017.4,000.0,026.9,020.0,09.1,0000.0,0002.11,0005.93,0001.13
2024-02-24 13:22:00,SystemResetWarning,0828.2,4.99,000.00,018.3,017.4,000.0,026.9,020.0,09.2,0000.0,0002.04,0005.74,0001.14
2024-02-24 13:23:00,SystemResetWarning,0828.2,4.99,000.00,018.3,017.4,000.0,026.9,020.0,09.3,0000.0,0002.08,0005.81,0001.15
2024-02-24 13:24:00,SystemResetWarning,0828.2,5.00,000.00,018.3,017.4,000.0,026.9,020.0,09.3,0000.0,0002.19,0006.21,0001.16
2024-02-24 13:25:00,SystemResetWarning,0828.2,5.00,000.00,018.3,017.3,000.0,026.9,020.0,09.4,0000.0,0002.21,0006.25,0001.16
2024-02-24 13:26:00,SystemResetWarning,0828.2,5.00,000.00,018.3,017.3,000.0,026.9,020.0,09.3,0000.0,0002.22,0006.39,0001.16
2024-02-24 13:27:00,SystemResetWarning,0828.2,5.01,000.00,018.3,017.5,000.0,027.0,020.1,09.3,0000.0,0002.21,0006.54,0001.15
2024-02-24 13:28:00,SystemResetWarning,0828.3,5.00,000.00,018.5,018.3,000.0,027.1,020.6,09.2,0000.0,0002.22,0007.83,0001.15
2024-02-24 13:29:00,SystemResetWarning,0828.3,4.99,000.00,018.7,019.0,000.0,027.1,021.0,09.0,0000.0,0002.16,0007.78,0001.16
2024-02-24 13:30:00,SystemResetWarning,0828.4,4.99,000.00,018.8,018.9,000.0,027.0,020.9,09.1,0000.0,0002.20,0008.33,0001.16
2024-02-24 13:31:00,SystemResetWarning,0828.3,4.99,000.00,018.8,018.8,000.0,027.0,020.8,09.2,0000.0,0002.23,0008.15,0001.16
2024-02-24 13:32:00,SystemResetWarning,0828.3,5.00,000.00,018.8,018.7,000.0,027.0,020.7,09.1,0000.0,0002.26,0007.69,0001.15
2024-02-24 13:33:00,SystemResetWarning,0828.2,5.01,000.00,018.8,018.6,000.0,027.0,020.6,09.1,0000.0,0002.26,0007.66,0001.14
2024-02-24 13:34:00,SystemResetWarning,0828.2,5.00,000.00,018.8,018.5,000.0,027.0,020.6,09.1,0000.0,0002.25,0007.68,0001.12
2024-02-24 13:35:00,SystemResetWarning,0828.2,4.98,000.00,018.8,018.4,000.0,027.0,020.5,08.9,0000.0,0002.14,0007.47,0001.10
2024-02-24 13:36:00,SystemResetWarning,0828.2,4.99,000.00,018.8,018.3,000.0,027.1,020.5,08.9,0000.0,0002.07,0007.36,0001.09
2024-02-24 13:37:00,SystemResetWarning,0828.2,5.01,000.00,018.8,018.2,000.0,027.1,020.5,09.0,0000.0,0002.06,0007.34,0001.08
2024-02-24 13:38:00,SystemResetWarning,0828.2,5.00,000.00,018.7,018.2,000.0,027.1,020.4,09.0,0000.0,0002.05,0007.32,0001.08
2024-02-24 13:39:00,SystemResetWarning,0828.3,5.00,000.00,018.7,018.1,000.0,027.1,020.4,09.1,0000.0,0002.03,0006.05,0001.07
2024-02-24 13:40:00,SystemResetWarning,0828.3,5.01,000.00,018.7,018.1,000.0,027.1,020.3,09.3,0000.0,0002.02,0005.35,0001.06
2024-02-24 13:41:00,SystemResetWarning,0828.3,5.00,000.00,018.7,018.0,000.0,027.1,020.3,09.2,0000.0,0002.04,0004.94,0001.05
2024-02-24 13:42:00,SystemResetWarning,0828.3,5.00,000.00,018.6,018.0,000.0,027.1,020.3,09.1,0000.0,0002.00,0004.23,0001.04
2024-02-24 13:43:00,SystemResetWarning,0828.4,5.00,000.00,018.6,017.9,000.0,027.0,020.3,09.0,0000.0,0001.94,0005.09,0001.03
2024-02-24 13:44:00,SystemResetWarning,0828.3,5.00,000.00,018.6,017.9,000.0,027.0,020.2,08.9,0000.0,0001.89,0005.03,0001.02
2024-02-24 13:45:00,SystemResetWarning,0828.3,5.00,000.00,018.6,017.9,000.0,027.0,020.2,08.9,0000.0,0001.82,0005.24,0001.01
2024-02-24 13:46:00,SystemResetWarning,0828.2,4.99,000.00,018.6,017.9,000.0,027.0,020.2,08.9,0000.0,0001.83,0005.84,0001.01
2024-02-24 13:47:00,SystemResetWarning,0828.2,5.00,000.00,018.6,017.8,000.0,027.0,020.2,08.7,0000.0,0001.83,0005.90,0001.00
2024-02-24 13:48:00,SystemResetWarning,0828.3,5.00,000.00,018.6,017.8,000.0,027.0,020.2,08.7,0000.0,0001.76,0005.95,0000.98
2024-02-24 13:49:00,SystemResetWarning,0828.2,5.00,000.00,018.5,017.8,000.0,027.0,020.2,08.9,0000.0,0001.71,0005.80,0000.97
2024-02-24 13:50:00,SystemResetWarning,0828.2,5.00,000.00,018.5,017.8,000.0,027.0,020.1,08.7,0000.0,0001.63,0005.53,0000.95
2024-02-24 13:51:00,SystemResetWarning,0828.2,5.01,000.00,018.5,017.8,000.0,027.0,020.1,08.3,0000.0,0001.60,0005.41,0000.94
2024-02-24 13:52:00,SystemResetWarning,0828.1,5.00,000.00,018.5,017.7,000.0,027.0,020.1,08.3,0000.0,0001.57,0005.28,0000.93
2024-02-24 13:53:00,SystemResetWarning,0828.1,5.00,000.00,018.5,017.7,000.0,027.0,020.1,08.2,0000.0,0001.54,0005.29,0000.93
2024-02-24 13:54:00,SystemResetWarning,0828.2,5.00,000.00,018.4,017.7,000.0,026.9,020.1,08.8,0000.0,0001.54,0004.21,0000.90
2024-02-24 13:55:00,SystemResetWarning,0828.2,5.00,000.00,018.4,017.7,000.0,026.9,020.0,09.0,0000.0,0001.52,0004.18,0000.89
2024-02-24 13:56:00,SystemResetWarning,0828.2,4.99,000.00,018.4,017.6,000.0,026.9,020.0,08.8,0000.0,0001.57,0003.91,0000.89
2024-02-24 13:57:00,SystemResetWarning,0828.2,4.99,000.00,018.4,017.6,000.0,026.9,020.0,08.4,0000.0,0001.57,0003.65,0000.89
2024-02-24 13:58:00,SystemResetWarning,0828.2,5.00,000.00,018.4,017.6,000.0,026.9,020.0,08.5,0000.0,0001.65,0005.10,0000.90
2024-02-24 13:59:00,SystemResetWarning,0828.1,5.01,000.00,018.3,017.6,000.0,026.9,020.0,08.7,0000.0,0001.67,0005.18,0000.90
